Location: Antin
(43.3330°N, 0.2804°E)
Time: 12:48:09
(UTC+00:00)

SME Rocket - Visible Passes

Search period start: 29 May 2022 00:00
Search period end: 08 June 2022 00:00
Orbit: 550 x 2650 km, 99.9° (Epoch: 28 May)

Date Brightness Start Highest point End Pass type
(mag) Time Alt. Az. Time Alt. Az. Time Alt. Az.
29 May 5.2 00:21:15 17° E 00:23:23 25° ENE 00:27:40 10° N visible
29 May 4.4 02:19:29 24° WSW 02:20:00 24° W 02:24:03 10° NW visible
30 May 5.7 00:00:09 10° E 00:03:02 18° NE 00:06:38 10° N visible
30 May 3.7 01:58:23 37° WSW 01:59:01 39° W 02:03:54 10° NNW visible
30 May 6.0 23:40:32 10° ENE 23:42:46 13° NE 23:45:18 10° NNE visible
31 May 3.3 01:37:17 52° SSW 01:38:07 63° WSW 01:43:32 10° NNW visible
01 Jun 3.3 01:16:11 50° SSE 01:17:21 83° ENE 01:23:01 10° NNW visible
02 Jun 4.0 00:55:05 35° SE 00:56:42 54° ENE 01:02:25 10° N visible
02 Jun 5.3 02:53:19 11° W 02:54:30 12° W 02:56:23 10° WNW visible
03 Jun 4.8 00:33:59 24° ESE 00:36:11 37° ENE 00:41:43 10° N visible
03 Jun 4.9 02:32:13 18° WSW 02:33:20 19° W 02:37:15 10° NW visible
04 Jun 5.4 00:12:52 15° ESE 00:15:47 27° NE 00:20:57 10° N visible
04 Jun 4.3 02:11:07 27° WSW 02:12:15 30° W 02:17:20 10° NNW visible
04 Jun 5.8 23:51:55 10° E 23:55:30 20° NE 00:00:03 10° N visible
05 Jun 3.9 01:50:01 38° SW 01:51:16 46° W 01:57:09 10° NNW visible
05 Jun 6.1 23:32:14 10° E 23:35:18 16° NE 23:39:00 10° NNE visible
06 Jun 3.6 01:28:55 45° S 01:30:23 71° WSW 01:36:48 10° NNW visible
06 Jun 6.4 23:13:00 10° ENE 23:15:11 12° NE 23:17:37 10° NNE visible
07 Jun 3.7 01:07:49 40° SSE 01:09:40 79° ENE 01:16:21 10° NNW visible
